Simultaneous Nadir Overpasses (SNOs) Predictions

Prediction of SNOs between METOP-B and NOAA-19 Satellite Orbit:

Table of predicted SNOs for the next 14.0 days since TLE Epoch: 2/17/2017
Index Date (METOP-B) Time (METOP-B) Lat,Lon (METOP-B) SZA (METOP-B ) Date (NOAA-19) Time (NOAA-19) Lat,Lon (NOAA-19) SZA (NOAA-19 ) Distance(km) Time Diff (sec)
1 02/27/2017 03:30:20 -76.87, -48.95 94.91 02/27/2017 03:29:07 -76.89, -49.00 94.89 2.54 73
2 02/27/2017 04:21:00 76.88, 118.43 85.09 02/27/2017 04:20:11 76.86, 118.38 85.07 3.09 49
3 02/27/2017 05:11:42 -76.85, -74.37 94.96 02/27/2017 05:11:08 -76.86, -74.37 94.95 0.97 34
4 02/27/2017 06:02:23 76.82, 92.84 85.00 02/27/2017 06:02:12 76.83, 93.00 85.01 4.14 11
5 02/27/2017 06:53:04 -76.84, -99.78 95.00 02/27/2017 06:53:09 -76.83, -99.75 95.00 0.89 5
6 02/27/2017 07:43:44 76.85, 67.61 85.00 02/27/2017 07:44:14 76.84, 67.45 85.00 4.07 30
7 02/27/2017 08:34:26 -76.82,-125.19 95.05 02/27/2017 08:35:10 -76.80,-125.12 95.06 2.43 44
8 02/27/2017 09:25:07 76.79, 42.02 84.91 02/27/2017 09:26:15 76.81, 42.07 84.94 3.00 68
9 02/27/2017 10:15:57 -76.40,-152.12 95.49 02/27/2017 10:17:03 -76.43,-149.10 95.46 78.97 66




NCC Satellite Simultaneous Nadir Overpasses (SNOs) Prediction Service
